Regional Weather Roundup
Issued by NWS Upton, NY

Current Version | Previous Version | Graphics & Text | Print | Product List | Glossary Off
Versions: 1 2 3 4 5 6 7 8 9 10 11 12 13 14 15 16 17 18 19 20 21 22 23 24 25 26 27 28 29 30 31 32 33 34 35 36 37 38 39 40 41 42 43 44 45 46 47 48 49 50

000
ASUS41 KOKX 280918
RWROKX

REGIONAL WEATHER ROUNDUP
NATIONAL WEATHER SERVICE NEW YORK NY
500 AM EDT THU MAY 28 2015

NOTE: "FAIR" INDICATES FEW OR NO CLOUDS BELOW 12,000 FEET WITH NO
SIGNIFICANT WEATHER AND/OR OBSTRUCTIONS TO VISIBILITY.

NYZ071-072-176-178-NJZ106-104-281000-
NEW YORK CITY METRO AREA


CITY           SKY/WX    TMP DP  RH WIND       PRES   REMARKS
CENTRAL PARK   MOCLDY    71  65  81 VRB3      30.16R
LAGUARDIA APRT PTCLDY    67  61  81 S6        30.12S
KENNEDY INTL   MOCLDY    60  56  86 S5        30.15S
NEWARK/LIBERTY CLOUDY    70  67  90 SW6       30.13R
BRNX BOT. GARD   N/A     64  63  94 E2        30.15R
TETERBORO      CLOUDY    70  67  90 S3        30.12R
$$

NYZ177-179-078>081-281000-
LONG ISLAND NEW YORK

CITY           SKY/WX    TMP DP  RH WIND       PRES   REMARKS
FARMINGDALE    CLEAR     62  59  90 S7        30.15S
ISLIP          MOCLDY    63  59  87 SW8       30.14S
SHIRLEY        MOCLDY    63  59  87 S8        30.16S
WESTHAMPTON    PTCLDY    61  59  93 SW8       30.18S
MONTAUK POINT    N/A     63  58  83 SW12G20   30.17F
$$

NYZ052-065-067-281000-
HUDSON VALLEY

CITY           SKY/WX    TMP DP  RH WIND       PRES   REMARKS
WHITE PLAINS   MOCLDY    63  62  97 CALM      30.13S FOG
NEWBURGH       MOCLDY    66  66 100 CALM      30.13S
MONTGOMERY     CLOUDY    66  65  96 CALM      30.12R FOG
POUGHKEEPSIE   CLOUDY    65  63  93 CALM      30.11S
ALBANY         CLOUDY    68  65  90 S9        30.08R
$$

NJZ001-105-106-008-010-013-015-019>022-104-281000-
NEW JERSEY

CITY           SKY/WX    TMP DP  RH WIND       PRES   REMARKS
NEWARK/LIBERTY CLOUDY    70  67  90 SW6       30.13R
TETERBORO      CLOUDY    70  67  90 S3        30.12R
CALDWELL       CLOUDY    70  67  90 SW3       30.13S
MORRISTOWN     CLOUDY    72  68  88 CALM      30.13S FOG
SOMERVILLE     CLOUDY    68  66  93 CALM      30.11S FOG
SUSSEX         CLOUDY    68  65  90 CALM      30.14S FOG
ANDOVER          N/A     67  67 100 CALM      30.14R
TRENTON        CLOUDY    68  67  96 S3        30.14R
MILLVILLE      PTCLDY    69  67  93 CALM      30.14S
ATLANTIC CITY  PTCLDY    66  62  87 S6        30.15R
WRIGHTSTOWN    PTCLDY    65  65  99 SW3       30.12R
TOMS RIVER     CLEAR    N/A N/A N/A CALM      30.14S
BELMAR         PTCLDY    66  59  77 SW5       30.14S
$$

PAZ047>061-062-071-281000-
EASTERN PENNSYLVANIA

CITY           SKY/WX    TMP DP  RH WIND       PRES   REMARKS
PHILADELPHIA   PTCLDY    70  67  90 S3        30.14R
ALLENTOWN      CLOUDY    64  64 100 CALM      30.14R FOG
SCRANTON       CLEAR     64  62  93 CALM      30.13R FOG
$$

CTZ002-004>006-009-010-012-RIZ004-006-007-MAZ004-011-015-281000-
SOUTHERN NEW ENGLAND
 IN CT

CITY           SKY/WX    TMP DP  RH WIND       PRES   REMARKS
BRADLEY INTL   PTCLDY    65  62  90 S7        30.11S
HARTFORD       PTCLDY    65  62  90 S8        30.12F
DANBURY        PTCLDY    67  64  90 CALM      30.14S FOG
WTRBRY/OXFORD  CLOUDY    66  61  82 S6        30.16S VSB 3/4
BRIDGEPORT     MOCLDY    63  60  90 S6        30.14S
MERIDEN        CLOUDY    65  61  87 S7        30.13S
NEW HAVEN      MOCLDY    61  59  93 SE3       30.14S
CHESTER        CLOUDY    63  61  94 S3        30.16S
GROTON         MOCLDY    58  56  93 S5        30.16S
WILLIMANTIC    CLOUDY    67  62  84 S8        30.14F

 IN RI

CITY           SKY/WX    TMP DP  RH WIND       PRES   REMARKS
PROVIDENCE     CLOUDY    64  59  83 S12       30.16R
BLOCK ISLAND   MOCLDY    57  54  88 SW12      30.18S
WESTERLY       MOCLDY    59  56  89 S6        30.17R

 IN MA

CITY           SKY/WX    TMP DP  RH WIND       PRES   REMARKS
BOSTON         CLOUDY    65  60  84 SW10      30.11S
WORCESTER      CLOUDY    65  62  90 SW13      30.13S
WESTFIELD      CLOUDY    65  63  93 SE3       30.10F FOG
PROVINCETOWN   PTCLDY    61  55  82 SW18G25   30.15R
NANTUCKET      CLOUDY    60  57  89 S12       30.20S
$$

ANZ330-335-338-340-345-350-353-355-281000-
COASTAL MARINE OBSERVATIONS


STATION/POSITION TIME  SKY/WX   TEMP    WIND        PRES    VSBY  WAVE
                                AIR SEA DIR/SP/G                  HT/PER
                 (UTC)          (F)     (DEG/KT/KT) (MB)    (MI)  (FT/S)
NY HARB ENTRANCE 0850            57 50  190/ 14/ 14 1020.1          3/ 6
4S FIRE IS       0803               55                N/A           5/ 6
20S FIRE ISLAND  0850            60 57  190/ 12/ 16 1020.8          4/ 6
GREAT SOUTH BAY  0815            62 67  230/ 12/ 14   N/A
23SW MTP         0850            60 54  220/ 16/ 19 1021.0          4/ 6
HUDSON CANYON    NOT AVBL
KINGS POINT      0800            66 61  180/  6/  9 1019.6
CENTRAL LI SOUND 0900            60 56  210/  4/  6   N/A
EASTERN LI SOUND 0800            59     210/  4/  6   N/A
ROBBINS REEF     0800            69     170/  5/  6 1019.0
$$


>>>>>>>>>>>>>>>>>>>>>>>>>>>> KEY <<<<<<<<<<<<<<<<<<<<<<<<<<<
>                                                          <
>     SKY/WX - SKY CONDITION/PRESENT WEATHER               <
>     TMP    - TEMPERATURE IN FAHRENHEIT                   <
>     DP     - DEWPOINT IN FAHRENHEIT                      <
>     RH     - RELATIVE HUMIDITY IN PERCENT                <
>     WIND   - DIRECTION AND SPEED IN MPH                  <
>     PRES   - MEAN SEA LEVEL PRESSURE IN INCHES OF HG     <
>     WCI    - WIND CHILL INDEX                            <
>     VSB    - VISIBILITY IN MILES                         <
>     HX     - HEAT INDEX                                  <
>     TC     - TEMPERATURE IN CELSIUS                      <
>     VRB    - VARIABLE WIND DIRECTION                     <
>                                                          <
>>>>>>>>>>>>>>>>>>>>>>>>>>>> KEY <<<<<<<<<<<<<<<<<<<<<<<<<<<




USA.gov is the U.S. government's official web portal to all federal, state and local government web resources and services.